[[{"header":{"parameterUnit":"m.s-1","parameterCategory":1,"la1":30.2991,"la2":30.254,"lo1":-89.0895,"lo2":-89.0444,"dy":0.0017,"dx":0.0017,"nx":28,"ny":28,"refTime":"2025-08-30T03:00:00:Z","depth":0,"parameterNumber":2,"parameterNumberName":"U-component_of_WINDS"},"data":[0,0,0,0,0,0,0,0,0,0,0,0,0,0,0,0,0,0,0,0,0,0,0,0,0,0,0,0,0,0,0,0,0,0,0,0,0,0,0,0,0,0,0,0,0,0,0,0,0,0,0,0,0,0,0,0,0,0,-3.9952,-3.9953,0,-4.0019,-4.002,-4.0021,-3.9879,-3.9874,-3.9869,-3.9865,-3.9938,-3.9945,-3.9951,0,0,0,0,0,0,0,0,0,0,0,0,0,-3.9704,-3.9709,-3.9952,-3.9953,-3.9954,-4.0019,-4.002,-4.0021,-3.9879,-3.9874,-3.9868,-3.9863,-3.9936,-3.9944,-3.9951,0,0,0,0,0,0,0,0,0,0,0,0,0,-3.9796,-3.9711,-3.9952,-3.9891,-3.9886,-4.0019,-4.002,-4.0021,-3.9881,-3.9874,-3.9867,-3.986,-3.9934,-3.9943,-3.9952,-4.0149,0,0,-3.9981,-3.9985,0,0,0,0,0,0,0,0,-3.9791,-3.9805,-3.9899,-3.9895,-3.989,-3.9933,-3.9959,-4.0064,-3.9882,-3.9883,-3.9865,-3.9857,-3.9943,-3.9951,-3.9979,-4.0153,-4.0156,-3.9982,-3.9988,-3.9992,-3.9994,0,0,0,0,0,0,0,-3.9784,-3.9801,-3.9979,-3.99,-3.9895,-3.9861,-3.9866,-3.9979,-3.9951,-3.9882,-3.9872,-3.9882,-3.9939,-3.997,-3.998,-4.0157,-3.9982,-3.999,-3.9996,-3.9999,-4.0495,-4.0502,0,0,0,0,0,0,-3.9785,-3.9797,-3.9976,-3.9981,-3.9822,-3.9871,-3.9877,-3.9927,-3.9949,-3.9946,-3.9888,-3.9875,-3.9958,-3.9969,-3.9982,-4.0213,-3.9992,-4.0,-4.0006,-4.0488,-4.0497,-4.0505,0,0,0,0,0,0,-3.978,-3.9803,-3.9974,-3.9886,-3.9905,-3.9883,-3.9939,-3.9932,-3.9962,-3.9953,-3.9948,-3.9924,-3.9952,-3.9968,-4.0108,-4.0214,-4.0005,-4.0013,-4.0479,-4.049,-4.0501,-4.0679,0,0,0,0,0,0,-3.9774,-3.9802,-3.9876,-3.9889,-3.991,-4.0099,-3.9946,-3.9938,-3.9979,-3.9963,-3.9986,-3.9984,-3.9948,-4.0095,-4.0118,-4.0223,-4.002,-4.0469,-4.0484,-4.0497,-4.0663,-4.0695,-4.0721,0,0,0,0,0,-3.9766,-3.9924,-3.988,-3.9903,-4.0002,-4.0105,-4.0118,-4.0072,-3.9988,-4.0062,-4.0056,-3.9983,-4.0199,-4.011,-4.0135,-4.0245,-4.0462,-4.048,-4.0496,-4.065,-4.0688,-4.0721,0,0,0,0,0,0,-3.9926,-3.9925,-3.9876,-4.0043,-4.0075,-4.0081,-4.0173,-4.0114,-4.0172,-4.0155,-4.0097,-4.0104,-4.0255,-4.0264,-4.0166,-4.0436,-4.0316,-4.0339,-4.0425,-4.0461,-4.049,-4.0485,-4.0028,0,0,0,0,0,-3.998,-4.0063,-4.0058,-4.0206,-4.0224,-4.0197,-4.024,-4.0202,-4.0233,-4.0247,-4.0251,-4.0285,-4.036,-4.0411,-4.048,-4.0664,-4.0667,-4.0751,-4.078,-4.0804,-4.0825,-4.0922,-4.0959,-4.056,-4.056,-4.056,0,0,-4.0095,-4.0104,-4.016,-4.0239,-4.0259,-4.0347,-4.0209,-4.0308,-4.0373,-4.0262,-4.0393,-4.0398,-4.0433,-4.0595,-4.0667,-4.0607,-4.0935,-4.0826,-4.0845,-4.0852,-4.0943,-4.0981,-4.1015,-4.0572,-4.057,-4.0568,0,0,-4.0347,-4.0363,-4.0487,-4.051,-4.0542,-4.0522,-4.0552,-4.0567,-4.0565,-4.0696,-4.0615,-4.0691,-4.0822,-4.085,-4.0881,-4.1144,-4.1079,-4.1168,-4.132,-4.1416,-4.1448,-4.1475,-4.1569,-4.1603,-4.1188,-4.1189,-4.1189,0,-4.0485,-4.0613,-4.0559,-4.0664,-4.0701,-4.0603,-4.0729,-4.0754,-4.0808,-4.0836,-4.0768,-4.0929,-4.0946,-4.1113,-4.1177,-4.1206,-4.1239,-4.1165,-4.1447,-4.1474,-4.1499,-4.1588,-4.1623,-4.1199,-4.1198,-4.1197,-4.1196,0,-4.0781,-4.0871,-4.0968,-4.1021,-4.1069,-4.1184,-4.1148,-4.1204,-4.1162,-4.115,-4.1284,-4.13,-4.137,-4.1407,-4.1368,-4.157,-4.1531,-4.1456,-4.1335,-4.1549,-4.1631,-4.1665,-4.1215,-4.1211,-4.1208,-4.1205,0,0,-4.1138,-4.1158,-4.1194,-4.1216,-4.1244,-4.1313,-4.1424,-4.1491,-4.1539,-4.158,-4.1671,-4.1784,-4.1714,-4.175,-4.1713,-4.1797,-4.2004,-4.1711,-4.1711,-4.1765,-4.2227,-4.2283,-4.2323,-4.196,-4.1967,-4.1972,-4.2224,0,-4.1387,-4.1576,-4.1531,-4.1718,-4.18,-4.1708,-4.1805,-4.1833,-4.1824,-4.1894,-4.1885,-4.1965,-4.1867,-4.1888,-4.1967,-4.1962,-4.2096,-4.1943,-4.2046,-4.205,-4.204,-4.2366,-4.2426,-4.2664,-4.2256,-4.2261,-4.2265,0,-4.1704,-4.1754,-4.195,-4.1963,-4.1996,-4.2083,-4.2141,-4.2208,-4.2238,-4.2226,-4.2266,-4.2212,-4.2322,-4.2199,-4.2351,-4.2248,-4.2288,-4.2292,-4.23,-4.2308,-4.2171,-4.2384,-4.2738,-4.2774,-4.2315,-4.2311,-4.2308,0,-4.1944,-4.2061,-4.2192,-4.2215,-4.2234,-4.2297,-4.2308,-4.2331,-4.2374,-4.2425,-4.2452,-4.2516,-4.2551,-4.2602,-4.2567,-4.2481,-4.2725,-4.2599,-4.2719,-4.272,-4.2775,-4.2772,-4.3141,-4.2801,-4.28,-4.2799,-4.2799,0,-4.2228,-4.2351,-4.23,-4.2382,-4.2517,-4.2464,-4.26,-4.26,-4.2621,-4.2702,-4.2626,-4.2704,-4.2653,-4.2726,-4.27,-4.2829,-4.2846,-4.284,-4.2832,-4.2847,-4.2848,-4.2872,-4.2855,-4.2809,-4.2807,-4.2805,-4.2803,0,-4.2519,-4.249,-4.2627,-4.2633,-4.2638,-4.2737,-4.2743,-4.2819,-4.2804,-4.2907,-4.2928,-4.2906,-4.2989,-4.2959,-4.3047,-4.3029,-4.3195,-4.3165,-4.3184,-4.3177,-4.3298,-4.3287,-4.3696,-4.3747,-4.3374,-4.3378,-4.3381,0,-4.2702,-4.2794,-4.281,-4.2857,-4.2873,-4.2951,-4.2994,-4.2946,-4.2994,-4.3035,-4.3106,-4.3181,-4.3239,-4.3375,-4.3368,-4.3435,-4.3407,-4.3545,-4.3416,-4.3429,-4.3409,-4.3403,-4.3412,-4.3571,-4.3576,-4.3579,-4.3582,0,-4.3029,-4.301,-4.3074,-4.3134,-4.3187,-4.3232,-4.327,-4.3314,-4.3267,-4.3326,-4.3408,-4.3453,-4.3542,-4.3618,-4.3678,-4.3691,-4.363,-4.3622,-4.3654,-4.367,-4.3677,-4.3675,-4.3255,-4.3613,-4.361,-4.3608,-4.3606,-4.3605,-4.3271,-4.3349,-4.3371,-4.3445,-4.3469,-4.3506,-4.3577,-4.3571,-4.3639,-4.3707,-4.3674,-4.377,-4.3798,-4.3872,-4.3893,-4.3968,-4.3914,-4.396,-4.3971,-4.3983,-4.3999,-4.3666,-4.3979,-4.3978,-4.3977,-4.3976,-4.3976,0,-4.3594,-4.3604,-4.3673,-4.3728,-4.3786,-4.3722,-4.3761,-4.3814,-4.3899,-4.3929,-4.3987,-4.4082,-4.4155,-4.4154,-4.4222,-4.4282,-4.4256,-4.4302,-4.4297,-4.4301,-4.4043,-4.4009,-4.4322,-4.4322,-4.4322,-4.4322,-4.4322,-4.4322,-4.3769,-4.3897,-4.3881,-4.4019,-4.4028,-4.412,-4.4148,-4.4182,-4.4206,-4.4315,-4.4375,-4.4372,-4.439,-4.4459,-4.4524,-4.4521,-4.455,-4.4607,-4.4594,-4.4353,-4.4319,-4.4286,-4.4254,-4.4614,-4.4614,-4.4846,-4.4848,-4.485]},{"header":{"parameterUnit":"m.s-1","parameterCategory":1,"la1":30.2991,"la2":30.254,"lo1":-89.0895,"lo2":-89.0444,"dy":0.0017,"dx":0.0017,"nx":28,"ny":28,"refTime":"2025-08-30T03:00:00:Z","depth":0,"parameterNumber":3,"parameterNumberName":"V-component_of_WINDS"},"data":[0,0,0,0,0,0,0,0,0,0,0,0,0,0,0,0,0,0,0,0,0,0,0,0,0,0,0,0,0,0,0,0,0,0,0,0,0,0,0,0,0,0,0,0,0,0,0,0,0,0,0,0,0,0,0,0,0,0,-2.6821,-2.6822,0,-2.6866,-2.6867,-2.6867,-2.6848,-2.6847,-2.6846,-2.6845,-2.6887,-2.689,-2.6892,0,0,0,0,0,0,0,0,0,0,0,0,0,-2.6716,-2.6718,-2.6821,-2.6822,-2.6823,-2.6866,-2.6867,-2.6867,-2.6848,-2.6847,-2.6846,-2.6844,-2.6887,-2.6889,-2.6892,0,0,0,0,0,0,0,0,0,0,0,0,0,-2.6761,-2.6719,-2.6821,-2.6818,-2.6819,-2.6866,-2.6867,-2.6867,-2.6848,-2.6847,-2.6845,-2.6844,-2.6886,-2.6889,-2.6892,-2.6944,0,0,-2.6902,-2.6903,0,0,0,0,0,0,0,0,-2.6759,-2.6765,-2.6818,-2.6819,-2.6819,-2.685,-2.6845,-2.6893,-2.6849,-2.6837,-2.6845,-2.6843,-2.6876,-2.688,-2.6892,-2.6946,-2.6948,-2.6902,-2.6904,-2.6906,-2.6906,0,0,0,0,0,0,0,-2.6756,-2.6763,-2.6839,-2.6819,-2.6819,-2.6814,-2.6818,-2.6854,-2.6865,-2.6838,-2.6837,-2.6842,-2.6876,-2.6889,-2.6893,-2.6949,-2.6902,-2.6905,-2.6907,-2.6908,-2.7047,-2.7048,0,0,0,0,0,0,-2.6753,-2.6761,-2.6837,-2.684,-2.6784,-2.6817,-2.6822,-2.6841,-2.6864,-2.6866,-2.6844,-2.6841,-2.6884,-2.6889,-2.6894,-2.6956,-2.6906,-2.6909,-2.691,-2.7045,-2.7047,-2.7049,0,0,0,0,0,0,-2.6751,-2.676,-2.6836,-2.68,-2.6809,-2.682,-2.6842,-2.6843,-2.6856,-2.6869,-2.687,-2.6855,-2.6883,-2.689,-2.6932,-2.6957,-2.691,-2.6913,-2.7043,-2.7046,-2.7048,-2.708,0,0,0,0,0,0,-2.6748,-2.676,-2.678,-2.6801,-2.6811,-2.6874,-2.6844,-2.6845,-2.6862,-2.6859,-2.688,-2.6882,-2.6882,-2.6927,-2.6935,-2.696,-2.6915,-2.7041,-2.7044,-2.7047,-2.7076,-2.7083,-2.7089,0,0,0,0,0,-2.6744,-2.6787,-2.6781,-2.6791,-2.6838,-2.6875,-2.6881,-2.6882,-2.6864,-2.6884,-2.6892,-2.6881,-2.6953,-2.6932,-2.694,-2.6967,-2.7039,-2.7043,-2.7047,-2.7074,-2.7082,-2.7089,0,0,0,0,0,0,-2.6768,-2.679,-2.6784,-2.6834,-2.6853,-2.6872,-2.6898,-2.689,-2.6914,-2.691,-2.6909,-2.6914,-2.6957,-2.6966,-2.6942,-2.7018,-2.6993,-2.6999,-2.701,-2.7018,-2.7024,-2.7021,-2.6918,0,0,0,0,0,-2.6779,-2.6809,-2.6826,-2.6869,-2.6879,-2.6887,-2.6903,-2.6902,-2.6921,-2.6929,-2.694,-2.6958,-2.6984,-2.7002,-2.7027,-2.7078,-2.7081,-2.71,-2.7107,-2.7112,-2.7116,-2.7143,-2.7151,-2.7062,-2.7062,-2.7062,0,0,-2.6802,-2.6818,-2.6837,-2.6874,-2.6889,-2.6918,-2.6894,-2.6926,-2.6948,-2.6933,-2.6974,-2.6983,-2.7003,-2.7049,-2.707,-2.7058,-2.7142,-2.7117,-2.712,-2.7123,-2.7148,-2.7156,-2.7164,-2.7065,-2.7064,-2.7064,0,0,-2.686,-2.6875,-2.6912,-2.6927,-2.695,-2.6955,-2.6964,-2.6984,-2.6989,-2.703,-2.702,-2.7045,-2.7091,-2.7106,-2.7119,-2.7182,-2.7172,-2.719,-2.7222,-2.7248,-2.7255,-2.7261,-2.7282,-2.729,-2.7195,-2.7195,-2.7195,0,-2.6885,-2.6931,-2.6932,-2.6966,-2.6982,-2.6971,-2.7008,-2.7022,-2.7051,-2.7062,-2.7049,-2.7106,-2.7119,-2.7168,-2.7183,-2.7195,-2.7204,-2.7187,-2.7254,-2.726,-2.7266,-2.7286,-2.7294,-2.7197,-2.7197,-2.7196,-2.7196,0,-2.6961,-2.6993,-2.702,-2.7049,-2.7068,-2.7104,-2.7109,-2.7128,-2.7125,-2.7131,-2.7172,-2.7187,-2.7215,-2.7227,-2.7224,-2.7276,-2.7267,-2.7254,-2.7229,-2.7276,-2.7295,-2.7303,-2.72,-2.7199,-2.7198,-2.7198,0,0,-2.7034,-2.7064,-2.7074,-2.7086,-2.711,-2.7134,-2.7168,-2.7196,-2.7213,-2.7233,-2.7261,-2.73,-2.7288,-2.7303,-2.7301,-2.7324,-2.7372,-2.7308,-2.7308,-2.7318,-2.7428,-2.7438,-2.7447,-2.7366,-2.7367,-2.7368,-2.7426,0,-2.7093,-2.7153,-2.7155,-2.721,-2.7239,-2.7229,-2.7258,-2.7276,-2.7282,-2.7306,-2.7313,-2.7341,-2.7323,-2.7332,-2.7354,-2.7361,-2.7394,-2.7357,-2.739,-2.7392,-2.7385,-2.7457,-2.7468,-2.7522,-2.7434,-2.7435,-2.7436,0,-2.7169,-2.7193,-2.7251,-2.727,-2.7282,-2.7309,-2.7334,-2.7358,-2.7377,-2.738,-2.7397,-2.7393,-2.7426,-2.7401,-2.7446,-2.7421,-2.7435,-2.7441,-2.7443,-2.7445,-2.7416,-2.7461,-2.7539,-2.7547,-2.7448,-2.7447,-2.7446,0,-2.7215,-2.7262,-2.7302,-2.7314,-2.7338,-2.7357,-2.7367,-2.7385,-2.7401,-2.7423,-2.7434,-2.7459,-2.7473,-2.7492,-2.7494,-2.7475,-2.7539,-2.7514,-2.7542,-2.7542,-2.7555,-2.7554,-2.7636,-2.7565,-2.7565,-2.7565,-2.7565,0,-2.728,-2.7316,-2.7324,-2.7349,-2.7388,-2.7389,-2.7428,-2.7437,-2.7452,-2.7478,-2.7471,-2.7495,-2.7496,-2.752,-2.7522,-2.7559,-2.7565,-2.7568,-2.7568,-2.7568,-2.7568,-2.7576,-2.7572,-2.7567,-2.7567,-2.7566,-2.7566,0,-2.7338,-2.7345,-2.7389,-2.7408,-2.7414,-2.7442,-2.7457,-2.7481,-2.7487,-2.7519,-2.7527,-2.7536,-2.7564,-2.7568,-2.7601,-2.7602,-2.7646,-2.7642,-2.764,-2.7639,-2.7666,-2.7663,-2.7756,-2.7768,-2.769,-2.7691,-2.7691,0,-2.7379,-2.7406,-2.7428,-2.7446,-2.7457,-2.7485,-2.7502,-2.7504,-2.7522,-2.7546,-2.7566,-2.7593,-2.7616,-2.7661,-2.767,-2.7695,-2.7691,-2.7722,-2.7694,-2.7694,-2.769,-2.7688,-2.7691,-2.7726,-2.7727,-2.7728,-2.7729,0,-2.7449,-2.7452,-2.7477,-2.7504,-2.7524,-2.7545,-2.7564,-2.7579,-2.7583,-2.7603,-2.7632,-2.765,-2.7684,-2.7711,-2.7735,-2.7745,-2.7737,-2.7737,-2.7745,-2.7745,-2.7742,-2.7744,-2.7653,-2.7735,-2.7734,-2.7734,-2.7733,-2.7733,-2.7499,-2.7523,-2.7543,-2.7571,-2.7586,-2.7604,-2.7627,-2.7636,-2.7661,-2.7689,-2.7688,-2.772,-2.7738,-2.777,-2.7782,-2.7806,-2.7796,-2.7807,-2.781,-2.7812,-2.7815,-2.7739,-2.7811,-2.781,-2.781,-2.781,-2.781,0,-2.7569,-2.7581,-2.7607,-2.7635,-2.7657,-2.7649,-2.767,-2.7689,-2.7717,-2.7735,-2.7757,-2.779,-2.7817,-2.7828,-2.7853,-2.7871,-2.7868,-2.7877,-2.7875,-2.7878,-2.7823,-2.7813,-2.7879,-2.7879,-2.7879,-2.7879,-2.7879,-2.7879,-2.7608,-2.7647,-2.7652,-2.7698,-2.7709,-2.7741,-2.7754,-2.7771,-2.7785,-2.7822,-2.7845,-2.7852,-2.7866,-2.7893,-2.7917,-2.7919,-2.7928,-2.7939,-2.794,-2.7889,-2.7882,-2.7875,-2.7866,-2.7942,-2.7942,-2.7993,-2.7993,-2.7994]}]]